This is the latest recevied weather packets stored in our database for station/object VU3ZAG-WX. If no packets are shown the sender has not sent any weather packets the latest 10 day(s).
| Time | Temp. | Humidity | Pressure | Rain* | Wind** | Luminosity | Snow |
|---|---|---|---|---|---|---|---|
| 1777442325 | 37.22° C | 53% | 1009.9 hPa | - | - | - | - |
| 1777441720 | 36.67° C | 54% | 1010 hPa | - | - | - | - |
| 1777441114 | 36.67° C | 58% | 1010.1 hPa | - | - | - | - |
| 1777440508 | 36.67° C | 57% | 1010.1 hPa | - | - | - | - |
| 1777439903 | 36.67° C | 56% | 1010.1 hPa | - | - | - | - |
| 1777439297 | 36.67° C | 54% | 1010.1 hPa | - | - | - | - |
| 1777438691 | 36.11° C | 56% | 1010.1 hPa | - | - | - | - |
| 1777438086 | 36.11° C | 58% | 1010.1 hPa | - | - | - | - |
| 1777437479 | 36.11° C | 60% | 1010.1 hPa | - | - | - | - |
| 1777436863 | 36.11° C | 57% | 1010 hPa | - | - | - | - |
| 1777436257 | 36.11° C | 59% | 1009.9 hPa | - | - | - | - |
| 1777435652 | 36.11° C | 54% | 1009.9 hPa | - | - | - | - |
| 1777435046 | 35.56° C | 58% | 1009.9 hPa | - | - | - | - |
| 1777434440 | 35.56° C | 59% | 1009.8 hPa | - | - | - | - |
| 1777433834 | 35.56° C | 55% | 1009.7 hPa | - | - | - | - |
| 1777433228 | 35° C | 57% | 1009.6 hPa | - | - | - | - |
| 1777432623 | 34.44° C | 58% | 1009.5 hPa | - | - | - | - |
| 1777432014 | 33.89° C | 62% | 1009.3 hPa | - | - | - | - |
| 1777431408 | 33.89° C | 63% | 1009.1 hPa | - | - | - | - |
| 1777430802 | 33.89° C | 60% | 1008.9 hPa | - | - | - | - |
| 1777430195 | 33.33° C | 61% | 1008.7 hPa | - | - | - | - |
| 1777429589 | 33.33° C | 60% | 1008.5 hPa | - | - | - | - |
| 1777428984 | 32.78° C | 60% | 1008.4 hPa | - | - | - | - |
| 1777428379 | 32.22° C | 63% | 1008.3 hPa | - | - | - | - |
| 1777427773 | 32.22° C | 65% | 1008.3 hPa | - | - | - | - |
* Rain since midnight (hover to see other rain measurements)
** Current wind speed in m/s (hover to see current wind gust speed)